Terug naar catalogus

FENGYUN 1C DEB

ActiefSSO
NORAD 41824·DEBRIS·🇨🇳 China

Gelanceerd May 10, 1999 vanaf Taiyuan Satellite Launch Center

Loading…

Volgende Passages (komende 24 uur)

TLE

VersSource: Space-Track

Epoch: Sep 14, 2026, 03:24 UTC

1 41824U 99025EYB 26257.14230924  .00002002  00000-0  84688-3 0  9992
2 41824  98.7124 324.4323 0057330 148.3036 212.1616 14.25738493512829

Volg FENGYUN 1C DEB in realtime met AllMySat

Download on the App Store